Grand Canyon, AZ

6:49 PM MST on May 28, 2017 (GMT -0700)
Grand Canyon National Park

Weather History for KGCN - January, 2014

Change the Weather History Date:

Sunday, January 26, 2014

  Actual Average Record
Temperature  
Mean Temperature 30 °F -  
Max Temperature 53 °F 42 °F 61 °F (1982)
Min Temperature 7 °F 15 °F 3 °F (2004)
Degree Days  
Heating Degree Days 35    
Moisture  
Dew Point -1 °F    
Average Humidity 39    
Maximum Humidity 73    
Minimum Humidity 7    
Precipitation  
Precipitation 0.00 in - - ()
Sea Level Pressure  
Sea Level Pressure 30.16 in    
Wind  
Wind Speed 5 mph (WNW)    
Max Wind Speed 9 mph    
Max Gust Speed -    
Visibility 10 miles    
Events      
Averages and records for this station are not official NWS values.
T = Trace of Precipitation, MM = Missing Value Source: NWS Daily Summary

Daily Weather History Graph

Daily Weather History Graph

Search for Another Location

Airport or City:

Trip Planner

Search our weather history database for the weather conditions in past years. The results will help you decide how hot, cold, wet, or windy it might be!

Date:

Astronomy

Jan. 26, 2014 Rise Set
Actual Time 7:33 AM MST 5:49 PM MST
Civil Twilight 7:06 AM MST 6:16 PM MST
Nautical Twilight 6:35 AM MST 6:47 PM MST
Astronomical Twilight 6:04 AM MST 7:18 PM MST
Moon 3:13 AM MST (1/26) 1:43 PM MST (1/26)
Length of Visible Light 11h 10m
Length of Day
10h 16m
Waning Crescent, 23% of the Moon is Illuminated
Jan 26
Waning Crescent
Jan 30
New
Feb 6
First Quarter
Feb 14
Full
Feb 22
Last Quarter

Hourly Weather History & Observations

Time (MST) Temp. Windchill Dew Point Humidity Pressure Visibility Wind Dir Wind Speed Gust Speed Precip Events Conditions
12:54 AM 16.0 °F - 3.0 °F 57% 30.17 in 10.0 mi North - - N/A   Clear
1:54 AM 14.0 °F - 3.0 °F 62% 30.16 in 10.0 mi North - - N/A   Clear
2:54 AM 12.9 °F - 3.0 °F 65% 30.15 in 10.0 mi North - - N/A   Clear
3:54 AM 10.0 °F - 1.9 °F 70% 30.17 in 10.0 mi North - - N/A   Clear
4:54 AM 7.0 °F - -0.0 °F 73% 30.18 in 10.0 mi North - - N/A   Clear
5:54 AM 9.0 °F - 1.0 °F 70% 30.22 in 10.0 mi North - - N/A   Clear
6:54 AM 7.0 °F -1.7 °F -0.0 °F 73% 30.29 in 10.0 mi NNE 4.6 mph - N/A   Clear
7:54 AM 8.1 °F -0.5 °F 1.0 °F 73% 30.30 in 10.0 mi NNE 4.6 mph - N/A   Clear
8:54 AM 21.0 °F 14.6 °F 3.9 °F 48% 30.24 in 10.0 mi NNE 4.6 mph - N/A   Clear
9:54 AM 39.9 °F - -0.0 °F 19% 30.17 in 10.0 mi North - - N/A   Clear
10:54 AM 46.9 °F - -5.1 °F 11% 30.15 in 10.0 mi WSW 5.8 mph - N/A   Clear
11:54 AM 50.0 °F - -2.0 °F 12% 30.14 in 10.0 mi SW 4.6 mph - N/A   Clear
12:54 PM 51.1 °F - -5.1 °F 10% 30.10 in 10.0 mi North - - N/A   Clear
1:54 PM 53.1 °F - -2.9 °F 10% 30.07 in 10.0 mi West 9.2 mph - N/A   Clear
2:54 PM 52.0 °F - -9.9 °F 7% 30.06 in 10.0 mi WSW 9.2 mph - N/A   Clear
3:54 PM 51.1 °F - -9.9 °F 8% 30.07 in 10.0 mi North - - N/A   Clear
4:54 PM 48.9 °F - -2.9 °F 12% 30.10 in 10.0 mi Variable 4.6 mph - N/A   Clear
5:54 PM 33.1 °F - -2.0 °F 22% 30.17 in 8.0 mi North - - N/A   Clear
6:54 PM 28.0 °F - -0.9 °F 29% 30.20 in 9.0 mi North - - N/A   Clear
7:54 PM 24.1 °F - -0.9 °F 34% 30.22 in 10.0 mi North - - N/A   Clear
8:54 PM 21.0 °F - -2.9 °F 35% 30.17 in 10.0 mi North - - N/A   Clear
9:54 PM 19.9 °F - -0.0 °F 42% 30.10 in 10.0 mi North - - N/A   Clear
10:54 PM 18.0 °F - -0.0 °F 45% 30.07 in 10.0 mi North - - N/A   Clear
11:54 PM 16.0 °F - -0.9 °F 47% 30.07 in 10.0 mi North - - N/A   Clear